Regional Weather Roundup
Issued by NWS

Home | Current Version | Previous Version | Text Only | Print | Product List | Glossary On
Versions: 1 2 3 4 5 6 7 8 9 10 11 12 13 14 15 16 17 18 19 20 21 22 23 24 25 26 27 28 29 30 31 32 33 34 35 36 37 38 39 40 41 42 43 44 45 46 47 48 49 50
000
ASUS44 KOUN 302210
RWROK

WEATHER ROUNDUP FOR OKLAHOMA
NATIONAL WEATHER SERVICE NORMAN OK
500 PM CDT TUE AUG 30 2016

NOTE: "FAIR" INDICATES FEW OR NO CLOUDS BELOW 12,000 FEET WITH NO
      SIGNIFICANT WEATHER AND/OR OBSTRUCTIONS TO VISIBILITY.

OKZ001>007-009>012-014-015-017-302300-
NORTHWEST OKLAHOMA AND THE PANHANDLE

CITY           SKY/WX    TMP DP  RH WIND       PRES   REMARKS
GAGE           LGT RAIN  74  69  85 NW10      30.14S
GUYMON         CLOUDY    74  64  71 S5        30.21R
ENID/WOODRING  PTSUNNY   91  68  46 E9        30.02F HX  95
$$

OKZ016-021>023-033>039-044-045-302300-
SOUTHWEST OKLAHOMA

CITY           SKY/WX    TMP DP  RH WIND       PRES   REMARKS
LAWTON/REGL    SUNNY     95  63  34 VRB7      30.00F HX  96
LAWTON/FT SILL SUNNY     91  72  53 VRB5      30.00F HX  98
FREDERICK      PTSUNNY   89  70  53 N9        29.99F HX  94
CLINTON        CLOUDY    82  65  56 NE14      30.10S
HOBART         CLOUDY    87  67  51 CALM      30.07S HX  90
ALTUS AFB      PTSUNNY   86  68  53 NW9       30.04F
$$

OKZ018>020-024>031-302300-
CENTRAL OKLAHOMA

CITY           SKY/WX    TMP DP  RH WIND       PRES   REMARKS
OKLAHOMA CITY  PTSUNNY   92  63  38 SE9       30.02F HX  93
OKC/WILEY POST MOSUNNY   94  65  38 NE9       30.03F HX  96
OKC/TINKER AFB SUNNY     92  65  40 VRB6      30.02F HX  93
STILLWATER     MOSUNNY   92  68  45 SE6       30.02F HX  96
GUTHRIE        MOSUNNY   91  69  48 E7        30.02F HX  96
$$

OKZ008-013-054>072-302300-
NORTHEAST OKLAHOMA

CITY           SKY/WX    TMP DP  RH WIND       PRES   REMARKS
TULSA          MOSUNNY   94  70  45 VRB3      29.98F HX 100
TULSA/JONES    MOSUNNY   92  73  53 E6        29.99F HX 100
PONCA CITY     SUNNY     91  67  44 E5        30.02F HX  94
BARTLESVILLE   MOSUNNY   89  71  55 E9        30.02F HX  95
MUSKOGEE       MOSUNNY   86  71  60 NE8       30.02F HX  91
$$

OKZ032-040>043-046>053-073>077-302300-
SOUTH CENTRAL/SOUTHEAST OKLAHOMA

CITY           SKY/WX    TMP DP  RH WIND       PRES   REMARKS
ARDMORE/DWNTWN MOSUNNY   91  64  40 E8        29.99S HX  93
MCALESTER      CLOUDY    96  67  38 MISG      30.01S HX 100
$$





USA.gov is the U.S. government's official web portal to all federal, state and local government web resources and services.